User: anonymous   Login
Location: Unspecified
(0.0000°N, 0.0000°E)
Time: 16:54:32
(UTC+00:00)
Language:

Vela 2A - Orbit

View from above orbital plane
View from above orbital plane
View from above satellite
View from above satellite

Ground track
Ground track

The orbit data is extracted from the following two-line orbital elements,

1 00836U 64040A   14334.35561795  .00000241  00000-0  00000+0 0  5449
2 00836 082.1142 325.0113 3291285 259.5949 000.6704 00.23916438 44006
Epoch (UTC): 30 November 2014 08:32:05
Eccentricity: 0.3291285
inclination: 82.1142°
perigee height: 67170 km
apogee height: 139335 km
right ascension of ascending node: 325.0113°
argument of perigee: 259.5949°
revolutions per day: 0.23916438
mean anomaly at epoch: 0.6704°
orbit number at epoch: 4400

The dashed part of the orbit path shows where the satellite is in the earth's shadow,  

DLR